Time,TemperatureF,DewpointF,PressureIn,WindDirection,WindDirectionDegrees,WindSpeedMPH,WindSpeedGustMPH,Humidity,HourlyPrecipIn,Conditions,Clouds,dailyrainin,SoftwareType,DateUTC
2013-08-01 00:01:00,63.5,48.0,29.85,SW,218,0.0,2.7,57,0.00,,CLR,0.00,VWS V14.01,2013-08-01 05:01:00,
2013-08-01 00:08:00,63.5,48.0,29.85,SW,214,0.0,0.0,57,0.00,,CLR,0.00,VWS V14.01,2013-08-01 05:08:00,
2013-08-01 00:13:00,63.5,48.0,29.85,SW,214,0.0,0.0,57,0.00,,CLR,0.00,VWS V14.01,2013-08-01 05:13:00,
2013-08-01 00:18:00,63.3,47.8,29.85,SW,214,0.0,0.0,57,0.00,,CLR,0.00,VWS V14.01,2013-08-01 05:18:00,
2013-08-01 00:23:00,63.3,49.2,29.85,SW,228,0.0,0.0,60,0.00,,CLR,0.00,VWS V14.01,2013-08-01 05:23:00,
2013-08-01 00:29:00,63.3,50.1,29.85,SW,217,0.0,0.0,62,0.00,,CLR,0.00,VWS V14.01,2013-08-01 05:29:00,
2013-08-01 00:34:00,63.3,50.1,29.85,WSW,255,2.2,3.1,62,0.00,,CLR,0.00,VWS V14.01,2013-08-01 05:34:00,
2013-08-01 00:40:00,63.3,49.7,29.85,WNW,297,0.0,0.0,61,0.00,,CLR,0.00,VWS V14.01,2013-08-01 05:40:00,
2013-08-01 00:45:00,63.1,49.5,29.85,West,281,0.0,0.0,61,0.00,,CLR,0.00,VWS V14.01,2013-08-01 05:45:00,
2013-08-01 00:50:00,63.1,49.5,29.85,West,280,0.0,0.0,61,0.00,,CLR,0.00,VWS V14.01,2013-08-01 05:50:00,
2013-08-01 00:55:00,63.0,49.3,29.85,West,277,0.0,0.0,61,0.00,,CLR,0.00,VWS V14.01,2013-08-01 05:55:00,
2013-08-01 01:00:00,63.0,49.8,29.85,West,277,0.0,0.0,62,0.00,,CLR,0.00,VWS V14.01,2013-08-01 06:00:00,
2013-08-01 01:05:00,63.0,51.0,29.85,WSW,258,3.1,3.1,65,0.00,,SCT090,0.00,VWS V14.01,2013-08-01 06:05:00,
2013-08-01 01:10:00,62.8,51.3,29.85,WSW,252,0.0,3.6,66,0.00,,SCT090,0.00,VWS V14.01,2013-08-01 06:10:00,
2013-08-01 01:15:00,62.8,51.7,29.85,WSW,251,0.0,0.0,67,0.00,,SCT090,0.00,VWS V14.01,2013-08-01 06:15:00,
2013-08-01 01:20:00,62.6,51.5,29.85,WSW,250,0.0,0.0,67,0.00,,SCT090,0.00,VWS V14.01,2013-08-01 06:20:00,
2013-08-01 01:25:00,62.6,51.9,29.85,WSW,250,0.0,0.0,68,0.00,,SCT090,0.00,VWS V14.01,2013-08-01 06:25:00,
2013-08-01 01:30:00,62.4,51.7,29.85,WSW,250,0.0,0.0,68,0.00,,SCT090,0.00,VWS V14.01,2013-08-01 06:30:00,
2013-08-01 01:35:00,62.2,51.6,29.82,WSW,251,0.0,0.0,68,0.00,,SCT090,0.00,VWS V14.01,2013-08-01 06:35:00,
2013-08-01 01:40:00,62.1,51.8,29.82,WSW,250,0.0,0.0,69,0.00,,SCT090,0.00,VWS V14.01,2013-08-01 06:40:00,
2013-08-01 01:45:00,61.9,51.6,29.82,WSW,250,0.0,0.0,69,0.00,,SCT090,0.00,VWS V14.01,2013-08-01 06:45:00,
2013-08-01 01:50:00,61.7,51.8,29.82,WSW,251,0.0,0.0,70,0.00,,SCT090,0.00,VWS V14.01,2013-08-01 06:50:00,
2013-08-01 01:55:00,61.7,52.2,29.82,WSW,251,0.0,0.0,71,0.00,,SCT090,0.00,VWS V14.01,2013-08-01 06:55:00,
2013-08-01 02:00:00,61.7,52.6,29.82,WSW,250,0.0,0.0,72,0.00,,SCT090,0.00,VWS V14.01,2013-08-01 07:00:00,
2013-08-01 02:05:00,61.5,52.4,29.82,WSW,250,0.0,0.0,72,0.00,,BKN065,0.00,VWS V14.01,2013-08-01 07:05:00,
2013-08-01 02:10:00,61.5,52.4,29.82,WSW,250,0.0,0.0,72,0.00,,BKN065,0.00,VWS V14.01,2013-08-01 07:10:00,
2013-08-01 02:15:00,61.3,52.6,29.82,WSW,251,0.0,0.0,73,0.00,,BKN065,0.00,VWS V14.01,2013-08-01 07:15:00,
2013-08-01 02:20:00,61.3,52.6,29.82,WSW,256,0.0,0.0,73,0.00,,BKN065,0.00,VWS V14.01,2013-08-01 07:20:00,
2013-08-01 02:25:00,61.2,52.5,29.82,WSW,256,0.0,0.0,73,0.00,,BKN065,0.00,VWS V14.01,2013-08-01 07:25:00,
2013-08-01 02:30:00,61.2,52.5,29.82,WSW,254,0.0,0.0,73,0.00,,BKN065,0.00,VWS V14.01,2013-08-01 07:30:00,
2013-08-01 02:35:00,61.0,52.7,29.82,WSW,254,0.0,0.0,74,0.00,,BKN065,0.00,VWS V14.01,2013-08-01 07:35:00,
2013-08-01 02:40:00,61.0,52.7,29.82,West,271,0.0,3.1,74,0.00,,BKN065,0.00,VWS V14.01,2013-08-01 07:40:00,
2013-08-01 02:45:00,60.8,52.5,29.82,West,271,0.0,0.0,74,0.00,,BKN065,0.00,VWS V14.01,2013-08-01 07:45:00,
2013-08-01 02:50:00,60.6,52.3,29.82,NNW,332,0.0,0.0,74,0.00,,BKN065,0.00,VWS V14.01,2013-08-01 07:50:00,
2013-08-01 02:55:00,60.6,52.7,29.82,WSW,239,0.0,4.0,75,0.00,,BKN065,0.00,VWS V14.01,2013-08-01 07:55:00,
2013-08-01 03:00:00,60.8,53.2,29.82,SW,227,0.0,0.0,76,0.00,,BKN065,0.00,VWS V14.01,2013-08-01 08:00:00,
2013-08-01 03:05:00,60.6,53.0,29.82,WSW,247,0.0,2.2,76,0.00,,CLR,0.00,VWS V14.01,2013-08-01 08:05:00,
2013-08-01 03:10:00,60.6,53.0,29.82,WSW,247,0.0,0.0,76,0.00,,CLR,0.00,VWS V14.01,2013-08-01 08:10:00,
2013-08-01 03:15:00,60.4,52.5,29.82,WSW,247,0.0,0.0,75,0.00,,CLR,0.00,VWS V14.01,2013-08-01 08:15:00,
2013-08-01 03:20:00,60.3,52.3,29.82,WSW,247,0.0,0.0,75,0.00,,CLR,0.00,VWS V14.01,2013-08-01 08:20:00,
2013-08-01 03:25:00,60.1,52.1,29.82,WSW,247,0.0,0.0,75,0.00,,CLR,0.00,VWS V14.01,2013-08-01 08:25:00,
2013-08-01 03:32:00,59.7,51.8,29.82,WSW,239,0.0,0.0,75,0.00,,CLR,0.00,VWS V14.01,2013-08-01 08:32:00,
2013-08-01 03:37:00,59.5,51.6,29.82,WSW,241,0.0,0.0,75,0.00,,CLR,0.00,VWS V14.01,2013-08-01 08:37:00,
2013-08-01 03:43:00,59.4,51.5,29.82,WNW,286,0.0,0.0,75,0.00,,CLR,0.00,VWS V14.01,2013-08-01 08:43:00,
2013-08-01 03:48:00,59.4,51.5,29.82,WNW,283,0.0,0.0,75,0.00,,CLR,0.00,VWS V14.01,2013-08-01 08:48:00,
2013-08-01 03:53:00,59.4,51.5,29.82,West,281,0.0,0.0,75,0.00,,CLR,0.00,VWS V14.01,2013-08-01 08:53:00,
2013-08-01 04:00:00,59.4,51.5,29.82,West,280,0.0,0.0,75,0.00,,CLR,0.00,VWS V14.01,2013-08-01 09:00:00,
2013-08-01 04:06:00,59.4,51.5,29.82,West,280,0.0,0.0,75,0.00,,CLR,0.00,VWS V14.01,2013-08-01 09:06:00,
2013-08-01 04:11:00,59.2,51.3,29.82,West,280,0.0,0.0,75,0.00,,CLR,0.00,VWS V14.01,2013-08-01 09:11:00,
2013-08-01 04:17:00,59.0,51.1,29.82,West,280,0.0,0.0,75,0.00,,CLR,0.00,VWS V14.01,2013-08-01 09:17:00,
2013-08-01 04:22:00,58.8,50.9,29.82,West,280,0.0,0.0,75,0.00,,CLR,0.00,VWS V14.01,2013-08-01 09:22:00,
2013-08-01 04:27:00,58.6,50.8,29.82,West,280,0.0,0.0,75,0.00,,CLR,0.00,VWS V14.01,2013-08-01 09:27:00,
2013-08-01 04:33:00,58.5,50.6,29.82,West,280,0.0,0.0,75,0.00,,CLR,0.00,VWS V14.01,2013-08-01 09:33:00,
2013-08-01 04:38:00,58.5,50.6,29.82,West,280,0.0,0.0,75,0.00,,CLR,0.00,VWS V14.01,2013-08-01 09:38:00,
2013-08-01 04:43:00,58.3,50.4,29.82,West,280,0.0,0.0,75,0.00,,CLR,0.00,VWS V14.01,2013-08-01 09:43:00,
2013-08-01 04:48:00,58.1,50.2,29.82,NW,313,0.0,0.0,75,0.00,,CLR,0.00,VWS V14.01,2013-08-01 09:48:00,
2013-08-01 04:54:00,57.9,50.0,29.82,NW,313,0.0,0.0,75,0.00,,CLR,0.00,VWS V14.01,2013-08-01 09:54:00,
2013-08-01 04:59:00,57.7,49.9,29.82,NW,313,0.0,0.0,75,0.00,,CLR,0.00,VWS V14.01,2013-08-01 09:59:00,
2013-08-01 05:08:00,57.6,49.7,29.85,NW,312,0.0,0.0,75,0.00,,FEW070,0.00,VWS V14.01,2013-08-01 10:08:00,
2013-08-01 05:20:00,57.2,49.7,29.85,NW,311,0.0,0.0,76,0.00,,FEW070,0.00,VWS V14.01,2013-08-01 10:20:00,
2013-08-01 05:28:00,57.2,49.4,29.85,NW,311,0.0,0.0,75,0.00,,FEW070,0.00,VWS V14.01,2013-08-01 10:28:00,
2013-08-01 05:33:00,57.0,49.5,29.82,NNW,340,0.0,0.0,76,0.00,,FEW070,0.00,VWS V14.01,2013-08-01 10:33:00,
2013-08-01 05:39:00,57.0,49.9,29.82,NNW,342,0.0,0.0,77,0.00,,FEW070,0.00,VWS V14.01,2013-08-01 10:39:00,
2013-08-01 05:46:00,57.2,49.7,29.82,NNW,342,0.0,0.0,76,0.00,,FEW070,0.00,VWS V14.01,2013-08-01 10:46:00,
2013-08-01 05:51:00,57.2,49.7,29.82,NNW,334,0.0,0.0,76,0.00,,FEW070,0.00,VWS V14.01,2013-08-01 10:51:00,
2013-08-01 05:59:00,57.2,49.7,29.82,NNW,334,0.0,0.0,76,0.00,,FEW070,0.00,VWS V14.01,2013-08-01 10:59:00,
2013-08-01 06:05:00,57.0,49.5,29.82,NNW,334,0.0,0.0,76,0.00,,CLR,0.00,VWS V14.01,2013-08-01 11:05:00,
2013-08-01 06:10:00,57.0,49.5,29.82,NNW,334,0.0,0.0,76,0.00,,CLR,0.00,VWS V14.01,2013-08-01 11:10:00,
2013-08-01 06:15:00,56.8,49.4,29.82,NNW,334,0.0,0.0,76,0.00,,CLR,0.00,VWS V14.01,2013-08-01 11:15:00,
2013-08-01 06:20:00,56.8,49.4,29.85,NNW,334,0.0,0.0,76,0.00,,CLR,0.00,VWS V14.01,2013-08-01 11:20:00,
2013-08-01 06:25:00,56.7,49.2,29.85,NNW,334,0.0,0.0,76,0.00,,CLR,0.00,VWS V14.01,2013-08-01 11:25:00,
2013-08-01 06:30:00,56.7,49.2,29.85,NNW,328,0.0,0.0,76,0.00,,CLR,0.00,VWS V14.01,2013-08-01 11:30:00,
2013-08-01 06:35:00,56.7,49.5,29.85,North,357,0.0,0.0,77,0.00,,CLR,0.00,VWS V14.01,2013-08-01 11:35:00,
2013-08-01 06:40:00,56.8,49.7,29.85,North,0,0.0,0.0,77,0.00,,CLR,0.00,VWS V14.01,2013-08-01 11:40:00,
2013-08-01 06:45:00,57.0,50.2,29.85,WNW,294,0.0,0.0,78,0.00,,CLR,0.00,VWS V14.01,2013-08-01 11:45:00,
2013-08-01 06:50:00,57.4,50.6,29.85,WNW,288,0.0,0.0,78,0.00,,CLR,0.00,VWS V14.01,2013-08-01 11:50:00,
2013-08-01 06:56:00,57.7,50.9,29.85,West,262,0.0,0.0,78,0.00,,CLR,0.00,VWS V14.01,2013-08-01 11:56:00,
2013-08-01 07:02:00,57.9,51.1,29.85,West,260,0.0,0.0,78,0.00,,CLR,0.00,VWS V14.01,2013-08-01 12:02:00,
2013-08-01 07:08:00,58.1,51.3,29.85,West,278,0.0,0.0,78,0.00,,CLR,0.00,VWS V14.01,2013-08-01 12:08:00,
2013-08-01 07:13:00,58.5,51.6,29.85,NNW,341,0.0,0.0,78,0.00,,CLR,0.00,VWS V14.01,2013-08-01 12:13:00,
2013-08-01 07:18:00,58.6,51.8,29.85,North,353,0.0,0.0,78,0.00,,CLR,0.00,VWS V14.01,2013-08-01 12:18:00,
2013-08-01 07:23:00,59.2,52.3,29.85,North,353,4.9,4.9,78,0.00,,CLR,0.00,VWS V14.01,2013-08-01 12:23:00,
2013-08-01 07:28:00,59.4,52.5,29.85,North,349,2.7,4.0,78,0.00,,CLR,0.00,VWS V14.01,2013-08-01 12:28:00,
2013-08-01 07:33:00,59.9,52.7,29.85,NNW,329,4.0,5.4,77,0.00,,CLR,0.00,VWS V14.01,2013-08-01 12:33:00,
2013-08-01 07:38:00,60.1,52.9,29.85,North,353,7.6,7.6,77,0.00,,CLR,0.00,VWS V14.01,2013-08-01 12:38:00,
2013-08-01 07:44:00,60.4,52.8,29.85,North,357,0.0,5.4,76,0.00,,CLR,0.00,VWS V14.01,2013-08-01 12:44:00,
2013-08-01 07:49:00,60.8,52.8,29.85,NNW,340,4.9,6.3,75,0.00,,CLR,0.00,VWS V14.01,2013-08-01 12:49:00,
2013-08-01 07:54:00,61.2,52.5,29.85,NW,322,5.4,5.4,73,0.00,,CLR,0.00,VWS V14.01,2013-08-01 12:54:00,
2013-08-01 07:59:00,61.3,52.2,29.85,NW,320,2.7,6.3,72,0.00,,CLR,0.00,VWS V14.01,2013-08-01 12:59:00,
2013-08-01 08:05:00,61.7,50.6,29.85,NW,307,4.5,4.5,67,0.00,,CLR,0.00,VWS V14.01,2013-08-01 13:05:00,
2013-08-01 08:10:00,62.1,49.8,29.85,NNW,348,4.5,7.6,64,0.00,,CLR,0.00,VWS V14.01,2013-08-01 13:10:00,
2013-08-01 08:17:00,62.4,47.9,29.85,North,2,5.4,5.8,59,0.00,,CLR,0.00,VWS V14.01,2013-08-01 13:17:00,
2013-08-01 08:25:00,63.0,45.6,29.85,NNE,15,3.6,5.4,53,0.00,,CLR,0.00,VWS V14.01,2013-08-01 13:25:00,
2013-08-01 08:30:00,63.1,44.2,29.85,NNW,332,8.1,8.1,50,0.00,,CLR,0.00,VWS V14.01,2013-08-01 13:30:00,
2013-08-01 08:37:00,63.7,42.5,29.85,NNE,30,2.7,4.0,46,0.00,,CLR,0.00,VWS V14.01,2013-08-01 13:37:00,
2013-08-01 08:42:00,64.2,41.9,29.85,NW,313,3.6,4.0,44,0.00,,CLR,0.00,VWS V14.01,2013-08-01 13:42:00,
2013-08-01 08:47:00,64.6,40.4,29.85,NNE,22,4.0,5.8,41,0.00,,CLR,0.00,VWS V14.01,2013-08-01 13:47:00,
2013-08-01 08:55:00,64.8,37.9,29.85,North,7,3.1,5.4,37,0.00,,CLR,0.00,VWS V14.01,2013-08-01 13:55:00,
2013-08-01 09:00:00,64.9,36.7,29.85,NW,318,3.1,5.8,35,0.00,,CLR,0.00,VWS V14.01,2013-08-01 14:00:00,
2013-08-01 09:05:00,65.1,36.8,29.85,North,4,4.0,5.8,35,0.00,,CLR,0.00,VWS V14.01,2013-08-01 14:05:00,
2013-08-01 09:10:00,65.3,37.0,29.85,WNW,292,5.4,9.6,35,0.00,,CLR,0.00,VWS V14.01,2013-08-01 14:10:00,
2013-08-01 09:15:00,65.5,37.1,29.85,NNE,17,3.6,5.8,35,0.00,,CLR,0.00,VWS V14.01,2013-08-01 14:15:00,
2013-08-01 09:21:00,65.8,36.0,29.85,NNE,12,7.6,10.5,33,0.00,,CLR,0.00,VWS V14.01,2013-08-01 14:21:00,
2013-08-01 09:28:00,66.0,36.1,29.85,North,350,5.4,10.1,33,0.00,,CLR,0.00,VWS V14.01,2013-08-01 14:28:00,
2013-08-01 09:33:00,66.4,36.4,29.85,NNW,344,7.2,7.2,33,0.00,,CLR,0.00,VWS V14.01,2013-08-01 14:33:00,
2013-08-01 09:38:00,66.6,36.6,29.85,NNW,342,5.4,8.3,33,0.00,,CLR,0.00,VWS V14.01,2013-08-01 14:38:00,
2013-08-01 09:43:00,66.9,36.1,29.85,NNW,344,8.3,8.3,32,0.00,,CLR,0.00,VWS V14.01,2013-08-01 14:43:00,
2013-08-01 09:48:00,66.9,35.3,29.85,North,11,3.6,7.6,31,0.00,,CLR,0.00,VWS V14.01,2013-08-01 14:48:00,
2013-08-01 09:56:00,67.1,34.7,29.85,NNW,336,5.4,7.6,30,0.00,,CLR,0.00,VWS V14.01,2013-08-01 14:56:00,
2013-08-01 10:02:00,67.6,34.3,29.85,NNW,340,4.0,7.6,29,0.00,,FEW065,0.00,VWS V14.01,2013-08-01 15:02:00,
2013-08-01 10:07:00,67.8,33.5,29.85,NNW,340,7.6,8.3,28,0.00,,FEW065,0.00,VWS V14.01,2013-08-01 15:07:00,
2013-08-01 10:13:00,67.8,33.5,29.85,NW,322,6.3,9.6,28,0.00,,FEW065,0.00,VWS V14.01,2013-08-01 15:13:00,
2013-08-01 10:18:00,68.0,32.8,29.85,NNW,331,2.7,6.7,27,0.00,,FEW065,0.00,VWS V14.01,2013-08-01 15:18:00,
2013-08-01 10:23:00,68.2,32.0,29.85,NW,315,3.1,5.4,26,0.00,,FEW065,0.00,VWS V14.01,2013-08-01 15:23:00,
2013-08-01 10:28:00,68.4,31.2,29.85,NW,311,4.5,8.1,25,0.00,,FEW065,0.00,VWS V14.01,2013-08-01 15:28:00,
2013-08-01 10:33:00,68.5,32.3,29.85,NNE,26,8.1,12.8,26,0.00,,FEW065,0.00,VWS V14.01,2013-08-01 15:33:00,
2013-08-01 10:38:00,68.7,30.5,29.85,NNW,328,8.3,9.6,24,0.00,,FEW065,0.00,VWS V14.01,2013-08-01 15:38:00,
2013-08-01 10:44:00,68.7,31.5,29.85,NNW,331,3.6,7.6,25,0.00,,FEW065,0.00,VWS V14.01,2013-08-01 15:44:00,
2013-08-01 10:50:00,69.1,30.8,29.85,West,264,5.8,10.1,24,0.00,,FEW065,0.00,VWS V14.01,2013-08-01 15:50:00,
2013-08-01 10:57:00,69.3,32.0,29.85,NNW,332,8.3,8.7,25,0.00,,FEW065,0.00,VWS V14.01,2013-08-01 15:57:00,
2013-08-01 11:02:00,69.3,32.0,29.85,North,357,8.7,8.7,25,0.00,,CLR,0.00,VWS V14.01,2013-08-01 16:02:00,
2013-08-01 11:08:00,69.4,31.1,29.85,NW,305,5.8,7.6,24,0.00,,CLR,0.00,VWS V14.01,2013-08-01 16:08:00,
2013-08-01 11:13:00,69.8,31.4,29.85,North,350,5.4,6.3,24,0.00,,CLR,0.00,VWS V14.01,2013-08-01 16:13:00,
2013-08-01 11:18:00,70.0,31.6,29.85,NW,319,3.1,8.3,24,0.00,,CLR,0.00,VWS V14.01,2013-08-01 16:18:00,
2013-08-01 11:24:00,69.8,30.4,29.85,North,357,6.3,9.6,23,0.00,,CLR,0.00,VWS V14.01,2013-08-01 16:24:00,
2013-08-01 11:30:00,69.8,30.4,29.85,NW,318,2.7,8.1,23,0.00,,CLR,0.00,VWS V14.01,2013-08-01 16:30:00,
2013-08-01 11:35:00,69.8,30.4,29.88,NW,323,10.5,12.8,23,0.00,,CLR,0.00,VWS V14.01,2013-08-01 16:35:00,
2013-08-01 11:40:00,70.0,30.5,29.88,North,8,9.6,9.6,23,0.00,,CLR,0.00,VWS V14.01,2013-08-01 16:40:00,
2013-08-01 11:46:00,70.2,31.7,29.88,SSW,213,3.6,4.9,24,0.00,,CLR,0.00,VWS V14.01,2013-08-01 16:46:00,
2013-08-01 11:52:00,70.7,31.1,29.88,WNW,298,10.5,10.5,23,0.00,,CLR,0.00,VWS V14.01,2013-08-01 16:52:00,
2013-08-01 11:57:00,71.1,31.4,29.88,NNW,334,10.5,13.2,23,0.00,,CLR,0.00,VWS V14.01,2013-08-01 16:57:00,
2013-08-01 12:04:00,71.1,31.4,29.85,NW,322,8.1,10.5,23,0.00,,CLR,0.00,VWS V14.01,2013-08-01 17:04:00,
2013-08-01 12:09:00,71.1,31.4,29.85,NNW,329,9.2,10.5,23,0.00,,CLR,0.00,VWS V14.01,2013-08-01 17:09:00,
2013-08-01 12:14:00,71.1,31.4,29.85,WNW,302,8.7,10.1,23,0.00,,CLR,0.00,VWS V14.01,2013-08-01 17:14:00,
2013-08-01 12:19:00,70.9,31.3,29.85,NNE,22,5.4,5.8,23,0.00,,CLR,0.00,VWS V14.01,2013-08-01 17:19:00,
2013-08-01 12:25:00,71.4,31.7,29.85,NW,317,3.1,13.2,23,0.00,,CLR,0.00,VWS V14.01,2013-08-01 17:25:00,
2013-08-01 12:30:00,71.6,30.8,29.85,NW,304,7.2,8.7,22,0.00,,CLR,0.00,VWS V14.01,2013-08-01 17:30:00,
2013-08-01 12:36:00,71.8,30.9,29.85,North,353,8.1,10.5,22,0.00,,CLR,0.00,VWS V14.01,2013-08-01 17:36:00,
2013-08-01 12:41:00,71.6,30.8,29.85,NNW,345,6.3,8.1,22,0.00,,CLR,0.00,VWS V14.01,2013-08-01 17:41:00,
2013-08-01 12:46:00,71.8,30.9,29.85,NW,321,2.7,5.8,22,0.00,,CLR,0.00,VWS V14.01,2013-08-01 17:46:00,
2013-08-01 12:53:00,72.1,31.2,29.85,North,4,3.1,6.3,22,0.00,,CLR,0.00,VWS V14.01,2013-08-01 17:53:00,
2013-08-01 12:58:00,72.0,31.1,29.85,NNE,13,5.8,11.0,22,0.00,,CLR,0.00,VWS V14.01,2013-08-01 17:58:00,
2013-08-01 13:07:00,72.5,31.5,29.85,North,8,5.8,10.1,22,0.00,,SCT047,0.00,VWS V14.01,2013-08-01 18:07:00,
2013-08-01 13:12:00,72.3,31.4,29.85,NNW,336,3.6,4.9,22,0.00,,SCT047,0.00,VWS V14.01,2013-08-01 18:12:00,
2013-08-01 13:18:00,72.1,31.2,29.85,North,350,10.5,10.5,22,0.00,,SCT047,0.00,VWS V14.01,2013-08-01 18:18:00,
2013-08-01 13:23:00,72.3,31.4,29.85,North,357,5.8,9.6,22,0.00,,SCT047,0.00,VWS V14.01,2013-08-01 18:23:00,
2013-08-01 13:28:00,72.9,31.8,29.85,NW,318,5.4,6.3,22,0.00,,SCT047,0.00,VWS V14.01,2013-08-01 18:28:00,
2013-08-01 13:33:00,73.0,32.0,29.85,NNE,20,3.6,5.8,22,0.00,,SCT047,0.00,VWS V14.01,2013-08-01 18:33:00,
2013-08-01 13:38:00,73.6,31.3,29.85,North,5,3.6,8.3,21,0.00,,SCT047,0.00,VWS V14.01,2013-08-01 18:38:00,
2013-08-01 13:43:00,73.6,31.3,29.85,North,2,4.0,10.5,21,0.00,,SCT047,0.00,VWS V14.01,2013-08-01 18:43:00,
2013-08-01 13:48:00,73.6,31.3,29.85,NE,55,3.1,11.0,21,0.00,,SCT047,0.00,VWS V14.01,2013-08-01 18:48:00,
2013-08-01 13:53:00,73.9,31.6,29.85,North,7,4.0,8.1,21,0.00,,SCT047,0.00,VWS V14.01,2013-08-01 18:53:00,
2013-08-01 13:59:00,74.3,31.9,29.85,NW,325,4.9,8.7,21,0.00,,SCT047,0.00,VWS V14.01,2013-08-01 18:59:00,
2013-08-01 14:04:00,74.3,31.9,29.85,NNW,342,12.8,13.2,21,0.00,,FEW050,0.00,VWS V14.01,2013-08-01 19:04:00,
2013-08-01 14:09:00,73.8,31.4,29.85,NW,313,3.1,8.3,21,0.00,,FEW050,0.00,VWS V14.01,2013-08-01 19:09:00,
2013-08-01 14:14:00,73.8,31.4,29.85,NW,320,2.7,5.8,21,0.00,,FEW050,0.00,VWS V14.01,2013-08-01 19:14:00,
2013-08-01 14:19:00,73.9,31.6,29.85,NW,320,8.3,9.2,21,0.00,,FEW050,0.00,VWS V14.01,2013-08-01 19:19:00,
2013-08-01 14:25:00,74.5,32.0,29.85,WNW,296,6.3,8.3,21,0.00,,FEW050,0.00,VWS V14.01,2013-08-01 19:25:00,
2013-08-01 14:30:00,74.7,32.2,29.85,NNE,18,3.1,10.1,21,0.00,,FEW050,0.00,VWS V14.01,2013-08-01 19:30:00,
2013-08-01 14:36:00,74.1,31.7,29.85,North,353,8.1,8.1,21,0.00,,FEW050,0.00,VWS V14.01,2013-08-01 19:36:00,
2013-08-01 14:43:00,73.9,31.6,29.85,NNW,345,5.4,8.3,21,0.00,,FEW050,0.00,VWS V14.01,2013-08-01 19:43:00,
2013-08-01 14:49:00,74.3,31.9,29.85,North,353,5.4,10.1,21,0.00,,FEW050,0.00,VWS V14.01,2013-08-01 19:49:00,
2013-08-01 14:54:00,74.8,32.3,29.85,WSW,242,5.4,6.3,21,0.00,,FEW050,0.00,VWS V14.01,2013-08-01 19:54:00,
2013-08-01 14:59:00,75.2,31.4,29.85,NNE,22,5.4,5.8,20,0.00,,FEW050,0.00,VWS V14.01,2013-08-01 19:59:00,
2013-08-01 15:04:00,75.4,31.6,29.82,NNW,342,8.7,8.7,20,0.00,,FEW055,0.00,VWS V14.01,2013-08-01 20:04:00,
2013-08-01 15:10:00,75.2,31.4,29.82,North,350,2.7,5.4,20,0.00,,FEW055,0.00,VWS V14.01,2013-08-01 20:10:00,
2013-08-01 15:18:00,75.7,29.3,29.82,WNW,288,4.9,4.9,18,0.00,,FEW055,0.00,VWS V14.01,2013-08-01 20:18:00,
2013-08-01 15:24:00,76.3,32.3,29.82,WNW,288,0.0,5.4,20,0.00,,FEW055,0.00,VWS V14.01,2013-08-01 20:24:00,
2013-08-01 15:29:00,76.6,32.6,29.82,SSW,210,3.6,4.0,20,0.00,,FEW055,0.00,VWS V14.01,2013-08-01 20:29:00,
2013-08-01 15:36:00,77.4,30.6,29.82,NNW,348,5.8,10.5,18,0.00,,FEW055,0.00,VWS V14.01,2013-08-01 20:36:00,
2013-08-01 15:41:00,77.2,30.4,29.82,North,350,4.0,10.5,18,0.00,,FEW055,0.00,VWS V14.01,2013-08-01 20:41:00,
2013-08-01 15:47:00,77.4,30.6,29.82,NW,320,9.2,9.2,18,0.00,,FEW055,0.00,VWS V14.01,2013-08-01 20:47:00,
2013-08-01 15:52:00,76.6,30.0,29.82,North,3,3.1,7.6,18,0.00,,FEW055,0.00,VWS V14.01,2013-08-01 20:52:00,
2013-08-01 15:58:00,75.9,29.4,29.82,NW,315,10.1,10.1,18,0.00,,FEW055,0.00,VWS V14.01,2013-08-01 20:58:00,
2013-08-01 16:03:00,76.1,29.6,29.82,NE,43,6.3,8.1,18,0.00,,FEW060,0.00,VWS V14.01,2013-08-01 21:03:00,
2013-08-01 16:08:00,76.8,30.1,29.82,SSW,207,5.4,5.4,18,0.00,,FEW060,0.00,VWS V14.01,2013-08-01 21:08:00,
2013-08-01 16:13:00,77.5,30.7,29.82,NNW,348,0.0,5.8,18,0.00,,FEW060,0.00,VWS V14.01,2013-08-01 21:13:00,
2013-08-01 16:18:00,77.2,30.4,29.82,West,262,8.3,8.3,18,0.00,,FEW060,0.00,VWS V14.01,2013-08-01 21:18:00,
2013-08-01 16:23:00,77.0,30.3,29.82,NW,321,6.3,6.3,18,0.00,,FEW060,0.00,VWS V14.01,2013-08-01 21:23:00,
2013-08-01 16:28:00,76.8,30.1,29.82,North,2,5.8,5.8,18,0.00,,FEW060,0.00,VWS V14.01,2013-08-01 21:28:00,
2013-08-01 16:33:00,76.3,29.7,29.82,North,1,5.8,5.8,18,0.00,,FEW060,0.00,VWS V14.01,2013-08-01 21:33:00,
2013-08-01 16:38:00,76.3,29.7,29.82,North,353,7.6,7.6,18,0.00,,FEW060,0.00,VWS V14.01,2013-08-01 21:38:00,
2013-08-01 16:43:00,76.8,30.1,29.82,West,264,2.7,5.8,18,0.00,,FEW060,0.00,VWS V14.01,2013-08-01 21:43:00,
2013-08-01 16:48:00,77.5,30.7,29.82,West,275,2.7,6.3,18,0.00,,FEW060,0.00,VWS V14.01,2013-08-01 21:48:00,
2013-08-01 16:53:00,77.7,30.9,29.82,WNW,303,4.9,6.3,18,0.00,,FEW060,0.00,VWS V14.01,2013-08-01 21:53:00,
2013-08-01 16:58:00,77.7,30.9,29.82,WSW,247,2.2,3.1,18,0.00,,FEW060,0.00,VWS V14.01,2013-08-01 21:58:00,
2013-08-01 17:03:00,78.3,31.3,29.82,NNW,327,5.4,8.1,18,0.00,,CLR,0.00,VWS V14.01,2013-08-01 22:03:00,
2013-08-01 17:09:00,77.5,30.7,29.82,North,353,4.9,6.3,18,0.00,,CLR,0.00,VWS V14.01,2013-08-01 22:09:00,
2013-08-01 17:15:00,78.1,31.2,29.82,SW,224,5.8,5.8,18,0.00,,CLR,0.00,VWS V14.01,2013-08-01 22:15:00,
2013-08-01 17:20:00,77.9,31.0,29.82,ENE,74,2.7,5.4,18,0.00,,CLR,0.00,VWS V14.01,2013-08-01 22:20:00,
2013-08-01 17:25:00,77.7,30.9,29.82,SSW,207,3.1,5.4,18,0.00,,CLR,0.00,VWS V14.01,2013-08-01 22:25:00,
2013-08-01 17:30:00,77.4,30.6,29.82,South,184,2.7,5.8,18,0.00,,CLR,0.00,VWS V14.01,2013-08-01 22:30:00,
2013-08-01 17:35:00,77.2,30.4,29.79,WNW,288,2.7,4.0,18,0.00,,CLR,0.00,VWS V14.01,2013-08-01 22:35:00,
2013-08-01 17:40:00,77.2,30.4,29.79,NW,316,0.0,3.6,18,0.00,,CLR,0.00,VWS V14.01,2013-08-01 22:40:00,
2013-08-01 17:45:00,77.5,30.7,29.79,NNW,327,0.0,5.8,18,0.00,,CLR,0.00,VWS V14.01,2013-08-01 22:45:00,
2013-08-01 17:51:00,77.9,31.0,29.79,WNW,294,0.0,3.6,18,0.00,,CLR,0.00,VWS V14.01,2013-08-01 22:51:00,
2013-08-01 17:56:00,77.5,30.7,29.79,NW,304,2.7,3.6,18,0.00,,CLR,0.00,VWS V14.01,2013-08-01 22:56:00,
2013-08-01 18:01:00,77.7,30.9,29.79,North,353,6.3,6.3,18,0.00,,BKN080,0.00,VWS V14.01,2013-08-01 23:01:00,
2013-08-01 18:06:00,77.7,30.9,29.79,NW,305,4.9,5.4,18,0.00,,BKN080,0.00,VWS V14.01,2013-08-01 23:06:00,
2013-08-01 18:12:00,77.5,30.7,29.79,NNW,345,3.6,4.9,18,0.00,,BKN080,0.00,VWS V14.01,2013-08-01 23:12:00,
2013-08-01 18:17:00,77.4,30.6,29.79,NNW,334,0.0,0.0,18,0.00,,BKN080,0.00,VWS V14.01,2013-08-01 23:17:00,
2013-08-01 18:22:00,77.5,30.7,29.79,NNE,24,2.7,4.9,18,0.00,,BKN080,0.00,VWS V14.01,2013-08-01 23:22:00,
2013-08-01 18:27:00,77.4,30.6,29.79,SW,218,0.0,0.0,18,0.00,,BKN080,0.00,VWS V14.01,2013-08-01 23:27:00,
2013-08-01 18:32:00,77.2,30.4,29.79,South,174,4.0,4.5,18,0.00,,BKN080,0.00,VWS V14.01,2013-08-01 23:32:00,
2013-08-01 18:37:00,76.8,30.1,29.79,SW,229,4.9,4.9,18,0.00,,BKN080,0.00,VWS V14.01,2013-08-01 23:37:00,
2013-08-01 18:42:00,75.9,29.4,29.79,WSW,248,0.0,0.0,18,0.00,,BKN080,0.00,VWS V14.01,2013-08-01 23:42:00,
2013-08-01 18:47:00,75.4,29.0,29.79,SSW,199,0.0,0.0,18,0.00,,BKN080,0.00,VWS V14.01,2013-08-01 23:47:00,
2013-08-01 18:52:00,74.8,28.5,29.79,SW,221,0.0,0.0,18,0.00,,BKN080,0.00,VWS V14.01,2013-08-01 23:52:00,
2013-08-01 18:58:00,74.3,31.9,29.79,SW,224,0.0,0.0,21,0.00,,BKN080,0.00,VWS V14.01,2013-08-01 23:58:00,
2013-08-01 19:03:00,73.9,27.8,29.79,SW,235,0.0,0.0,18,0.00,,FEW080,0.00,VWS V14.01,2013-08-02 00:03:00,
2013-08-01 19:08:00,73.6,27.5,29.79,SSW,210,2.7,5.4,18,0.00,,FEW080,0.00,VWS V14.01,2013-08-02 00:08:00,
2013-08-01 19:13:00,73.2,31.0,29.79,SW,222,0.0,0.0,21,0.00,,FEW080,0.00,VWS V14.01,2013-08-02 00:13:00,
2013-08-01 19:19:00,73.0,30.8,29.79,WSW,238,5.4,5.4,21,0.00,,FEW080,0.00,VWS V14.01,2013-08-02 00:19:00,
2013-08-01 19:24:00,72.7,30.5,29.79,SW,217,5.8,5.8,21,0.00,,FEW080,0.00,VWS V14.01,2013-08-02 00:24:00,
2013-08-01 19:29:00,72.5,30.4,29.79,SW,224,3.1,4.0,21,0.00,,FEW080,0.00,VWS V14.01,2013-08-02 00:29:00,
2013-08-01 19:36:00,72.1,30.1,29.79,SW,216,3.1,4.0,21,0.00,,FEW080,0.00,VWS V14.01,2013-08-02 00:36:00,
2013-08-01 19:41:00,72.0,29.9,29.79,SW,222,3.1,4.9,21,0.00,,FEW080,0.00,VWS V14.01,2013-08-02 00:41:00,
2013-08-01 19:46:00,71.6,29.6,29.79,SW,226,0.0,3.1,21,0.00,,FEW080,0.00,VWS V14.01,2013-08-02 00:46:00,
2013-08-01 19:52:00,71.1,30.3,29.79,SW,230,2.7,3.6,22,0.00,,FEW080,0.00,VWS V14.01,2013-08-02 00:52:00,
2013-08-01 19:57:00,70.7,30.0,29.79,WSW,237,2.7,4.9,22,0.00,,FEW080,0.00,VWS V14.01,2013-08-02 00:57:00,
2013-08-01 20:03:00,70.3,29.7,29.79,SW,230,3.6,3.6,22,0.00,,CLR,0.00,VWS V14.01,2013-08-02 01:03:00,
2013-08-01 20:08:00,70.2,29.6,29.79,SW,234,2.7,4.9,22,0.00,,CLR,0.00,VWS V14.01,2013-08-02 01:08:00,
2013-08-01 20:14:00,69.8,29.3,29.79,SW,236,3.1,4.0,22,0.00,,CLR,0.00,VWS V14.01,2013-08-02 01:14:00,
2013-08-01 20:20:00,69.6,30.2,29.79,SW,227,3.1,4.0,23,0.00,,CLR,0.00,VWS V14.01,2013-08-02 01:20:00,
2013-08-01 20:25:00,69.3,29.9,29.79,SW,228,3.6,3.6,23,0.00,,CLR,0.00,VWS V14.01,2013-08-02 01:25:00,
2013-08-01 20:30:00,69.1,29.8,29.79,SW,220,4.9,6.3,23,0.00,,CLR,0.00,VWS V14.01,2013-08-02 01:30:00,
2013-08-01 20:36:00,68.9,29.6,29.79,SW,233,3.6,5.4,23,0.00,,CLR,0.00,VWS V14.01,2013-08-02 01:36:00,
2013-08-01 20:42:00,68.5,29.3,29.79,SW,214,3.6,5.4,23,0.00,,CLR,0.00,VWS V14.01,2013-08-02 01:42:00,
2013-08-01 20:48:00,68.4,29.1,29.79,SW,214,4.0,5.8,23,0.00,,CLR,0.00,VWS V14.01,2013-08-02 01:48:00,
2013-08-01 20:53:00,68.2,29.0,29.79,SSW,208,3.1,4.0,23,0.00,,CLR,0.00,VWS V14.01,2013-08-02 01:53:00,
2013-08-01 20:59:00,68.2,29.0,29.79,SW,217,3.6,3.6,23,0.00,,CLR,0.00,VWS V14.01,2013-08-02 01:59:00,
2013-08-01 21:04:00,68.2,29.0,29.79,SW,230,3.1,3.6,23,0.00,,CLR,0.00,VWS V14.01,2013-08-02 02:04:00,
2013-08-01 21:11:00,67.8,29.7,29.79,SW,227,0.0,3.6,24,0.00,,CLR,0.00,VWS V14.01,2013-08-02 02:11:00,
2013-08-01 21:17:00,67.6,29.6,29.79,WSW,246,2.7,4.9,24,0.00,,CLR,0.00,VWS V14.01,2013-08-02 02:17:00,
2013-08-01 21:23:00,67.5,29.4,29.79,WSW,243,2.2,5.4,24,0.00,,CLR,0.00,VWS V14.01,2013-08-02 02:23:00,
2013-08-01 21:28:00,67.5,29.4,29.79,WSW,241,0.0,0.0,24,0.00,,CLR,0.00,VWS V14.01,2013-08-02 02:28:00,
2013-08-01 21:34:00,67.3,30.3,29.82,WSW,241,0.0,0.0,25,0.00,,CLR,0.00,VWS V14.01,2013-08-02 02:34:00,
2013-08-01 21:40:00,66.9,30.0,29.82,SW,235,0.0,0.0,25,0.00,,CLR,0.00,VWS V14.01,2013-08-02 02:40:00,
2013-08-01 21:45:00,66.7,29.8,29.82,SW,225,0.0,0.0,25,0.00,,CLR,0.00,VWS V14.01,2013-08-02 02:45:00,
2013-08-01 21:51:00,66.6,30.6,29.79,SSW,207,3.1,3.1,26,0.00,,CLR,0.00,VWS V14.01,2013-08-02 02:51:00,
2013-08-01 21:56:00,66.4,30.5,29.79,SW,221,3.6,3.6,26,0.00,,CLR,0.00,VWS V14.01,2013-08-02 02:56:00,
2013-08-01 22:01:00,66.2,31.3,29.79,SSW,210,0.0,0.0,27,0.00,,CLR,0.00,VWS V14.01,2013-08-02 03:01:00,
2013-08-01 22:06:00,66.2,31.3,29.79,SW,220,0.0,0.0,27,0.00,,CLR,0.00,VWS V14.01,2013-08-02 03:06:00,
2013-08-01 22:11:00,66.0,31.1,29.79,SW,216,0.0,0.0,27,0.00,,CLR,0.00,VWS V14.01,2013-08-02 03:11:00,
2013-08-01 22:16:00,66.0,31.1,29.79,SW,214,3.6,4.5,27,0.00,,CLR,0.00,VWS V14.01,2013-08-02 03:16:00,
2013-08-01 22:22:00,66.0,31.1,29.79,SSW,211,4.0,4.0,27,0.00,,CLR,0.00,VWS V14.01,2013-08-02 03:22:00,
2013-08-01 22:27:00,66.2,31.3,29.79,SSW,195,4.0,4.0,27,0.00,,CLR,0.00,VWS V14.01,2013-08-02 03:27:00,
2013-08-01 22:32:00,66.2,31.3,29.79,SW,214,4.0,4.9,27,0.00,,CLR,0.00,VWS V14.01,2013-08-02 03:32:00,
2013-08-01 22:37:00,66.0,32.0,29.79,SSW,213,2.7,4.9,28,0.00,,CLR,0.00,VWS V14.01,2013-08-02 03:37:00,
2013-08-01 22:42:00,66.0,32.0,29.79,SSW,207,0.0,0.0,28,0.00,,CLR,0.00,VWS V14.01,2013-08-02 03:42:00,
2013-08-01 22:47:00,65.8,32.7,29.79,SW,217,0.0,5.4,29,0.00,,CLR,0.00,VWS V14.01,2013-08-02 03:47:00,
2013-08-01 22:52:00,65.8,32.7,29.79,SW,219,0.0,0.0,29,0.00,,CLR,0.00,VWS V14.01,2013-08-02 03:52:00,
2013-08-01 22:58:00,65.7,32.6,29.79,SW,223,0.0,2.2,29,0.00,,CLR,0.00,VWS V14.01,2013-08-02 03:58:00,
2013-08-01 23:01:00,65.7,32.6,29.79,SW,220,0.0,0.0,29,0.00,,CLR,0.00,VWS V14.01,2013-08-02 04:01:00,
2013-08-01 23:02:00,65.7,32.6,29.79,SW,221,3.1,4.0,29,0.00,,CLR,0.00,VWS V14.01,2013-08-02 04:02:00,
2013-08-01 23:03:00,65.7,32.6,29.79,SW,220,2.2,4.9,29,0.00,,CLR,0.00,VWS V14.01,2013-08-02 04:03:00,
2013-08-01 23:05:00,65.7,33.4,29.79,SW,220,0.0,4.0,30,0.00,,CLR,0.00,VWS V14.01,2013-08-02 04:05:00,
2013-08-01 23:10:00,65.7,33.4,29.79,SW,233,0.0,3.1,30,0.00,,CLR,0.00,VWS V14.01,2013-08-02 04:10:00,
2013-08-01 23:15:00,65.5,33.3,29.79,SW,225,0.0,0.0,30,0.00,,CLR,0.00,VWS V14.01,2013-08-02 04:15:00,
2013-08-01 23:16:00,65.5,33.3,29.79,SW,225,0.0,0.0,30,0.00,,CLR,0.00,VWS V14.01,2013-08-02 04:16:00,
2013-08-01 23:18:00,65.5,33.3,29.79,SW,224,0.0,0.0,30,0.00,,CLR,0.00,VWS V14.01,2013-08-02 04:18:00,
2013-08-01 23:23:00,65.3,33.9,29.79,SW,218,0.0,0.0,31,0.00,,CLR,0.00,VWS V14.01,2013-08-02 04:23:00,
2013-08-01 23:28:00,65.1,33.8,29.79,SW,218,0.0,0.0,31,0.00,,CLR,0.00,VWS V14.01,2013-08-02 04:28:00,
2013-08-01 23:33:00,64.9,33.6,29.79,SW,218,0.0,0.0,31,0.00,,CLR,0.00,VWS V14.01,2013-08-02 04:33:00,
2013-08-01 23:38:00,64.8,35.0,29.79,SW,218,0.0,0.0,33,0.00,,CLR,0.00,VWS V14.01,2013-08-02 04:38:00,
2013-08-01 23:43:00,64.4,34.7,29.79,SSW,208,0.0,0.0,33,0.00,,CLR,0.00,VWS V14.01,2013-08-02 04:43:00,
2013-08-01 23:48:00,64.0,35.1,29.79,SSW,192,0.0,0.0,34,0.00,,CLR,0.00,VWS V14.01,2013-08-02 04:48:00,
2013-08-01 23:53:00,63.9,35.0,29.79,SSW,193,3.6,3.6,34,0.00,,CLR,0.00,VWS V14.01,2013-08-02 04:53:00,
2013-08-01 23:58:00,63.9,35.0,29.79,South,176,4.0,4.0,34,0.00,,CLR,0.00,VWS V14.01,2013-08-02 04:58:00,